STARLINK-37503, 69262

Orbit data source: Space-Track

STARLINK-37503, 69262 is a payload satellite owned by SpaceX/Seattle (US) in LEO that was launched on Fri, 29 May 2026 UTC via an FALCON 9 launch vehicle from the Air Force Eastern Test Range (AFETR). Payload-class satellites include a variety of spacecraft equipped with specific instruments for various scientific and technological missions. These include communications satellites like Starlink; space stations such as the ISS; scientific satellites like the Hubble; Earth observation satellites from companies like Planet Labs, Umbra, and HawkEye 360; GPS; miniature CubeSats for education and research; and military/defense satellites.

Loading next visibility...
Identifier
69262, 2026-117AA
Orbit
LEO
Country
Flag of USUS
Related business
Manufacturer
SpaceX/Seattle
Mission
Operational spacecraft
Bus & Motor
STARLINK V2MO, Unknown motor
Mass
575 kg wet, ~530 kg dry
Launch date (UTC)
2026-05-29 (3 weeks ago)
Launch vehicle
FALCON 9
Launch site
Air Force Eastern Test Range (AFETR)
Object type
Payload
Rocket body
Debris
Shape & HBR
Unknown
Radar Cross Section
Large (>1 m²)

Expand to show TLE details & history
Last TLE update: 9 hours ago

TLE from 9 hours ago
0 STARLINK-37503
1 69262U 26117AA  26168.68913262  .00184394  00000-0  91486-3 0  9992
2 69262  53.1569 240.3705 0001175  78.7993 281.3161 15.80946401  3063
Epoch: 2026-06-17T16:32Z
TLE epoch observation values (Epoch: 2026-06-17T16:32:21.058Z)
Latitude
-0.00008°
Longitude
86.33949°
Altitude
328.528 km
Speed
7.713 km/s
True Right ascension
16h 01m 28s
True Declination
0° 00' 00"
Sunlit
Object was in full shadow at epoch
Visualization orbit readout
Latitude
Unknown
Longitude
Unknown
Altitude
Unknown
Speed
Unknown
Apparent Right ascension
Unknown
Apparent Declination
Unknown
Sunlit
N/A
Visualization observer readout
Local Sidereal Time
12:42:51
Azimuth
Unknown
Elevation
Unknown
Doppler factor
Unknown
Orbital elements
Apogee altitude
328.813 km
Perigee altitude
327.237 km
Semi-major axis
6,706.162 km
Eccentricity
0.00012
Inclination
53.1569°
RAAN
240.3705°
Arg. of periapsis
78.7993°
True anomaly
281.3029°
Mean anomaly
281.3161°
Eccentric anomaly
281.3095°
Mean motion
3.95214 °/min
Orbital period
91.09 mins
BSTAR
0.00091486
Loading maneuver chart data...
Computing Atmospheric mass density...
Loading historical data...
Loading historical data...
Loading historical data...
Loading historical data...
Loading historical data...
Loading historical data...
Loading historical data...

Documentation

Showing up to 5 results
|